When you browse on this site, cookies collect data to enhance your experience and personalize the content and advertising you see.
Visit our Privacy Policy to learn more. By continuing to use the site, you agree to this use of cookies and data.
  • In Hungary
  • List of Countries
  • For 7 days
  • Water Temperature
  • Weather Map
  • News
  • Weather Widgets
  • user-avatar
    Login

    Hourly Weather Canillo

    Today, 26 May, Tuesday

    Time Temperature Precipitation Wind Pressure Humidity
    00:00 +8°C° 0 mm 1 mps 624 mmHg 87%
    01:00 +7°C° 0 mm 1 mps 624 mmHg 84%
    02:00 +7°C° 0 mm 1 mps 624 mmHg 82%
    03:00 +7°C° 0 mm 1 mps 623 mmHg 79%
    04:00 +8°C° 0 mm 1 mps 624 mmHg 76%
    05:00 +9°C° 0 mm 1 mps 624 mmHg 73%
    06:00 +10°C° 0 mm 1 mps 625 mmHg 69%
    07:00 +12°C° 0 mm 1 mps 626 mmHg 62%
    08:00 +15°C° 0 mm 1 mps 627 mmHg 55%
    09:00 +18°C° 0 mm 1 mps 628 mmHg 48%
    10:00 +19°C° 0 mm 1 mps 628 mmHg 46%
    11:00 +19°C° 0 mm 2 mps 628 mmHg 45%
    12:00 +20°C° 0 mm 2 mps 628 mmHg 43%
    13:00 +19°C° 0 mm 2 mps 628 mmHg 48%
    14:00 +19°C° 0 mm 2 mps 627 mmHg 53%
    15:00 +18°C° 0 mm 2 mps 627 mmHg 58%
    16:00 +17°C° 0.2 mm 2 mps 626 mmHg 67%
    17:00 +15°C° 0.2 mm 2 mps 626 mmHg 76%
    18:00 +14°C° 0.2 mm 1 mps 625 mmHg 85%
    19:00 +13°C° 0.1 mm 1 mps 625 mmHg 87%
    20:00 +12°C° 0.1 mm 1 mps 625 mmHg 90%
    21:00 +10°C° 0.1 mm 1 mps 624 mmHg 92%
    22:00 +10°C° 0 mm 1 mps 624 mmHg 87%
    23:00 +9°C° 0 mm 1 mps 624 mmHg 83%

    Tomorrow, 27 May, Wednesday

    Time Temperature Precipitation Wind Pressure Humidity
    00:00 +8°C° 0 mm 1 mps 623 mmHg 78%
    01:00 +8°C° 0 mm 1 mps 623 mmHg 73%
    02:00 +7°C° 0 mm 1 mps 623 mmHg 68%
    03:00 +7°C° 0 mm 1 mps 623 mmHg 63%
    04:00 +8°C° 0 mm 1 mps 623 mmHg 63%
    05:00 +9°C° 0 mm 1 mps 624 mmHg 63%
    06:00 +10°C° 0 mm 1 mps 624 mmHg 63%
    07:00 +13°C° 0 mm 1 mps 626 mmHg 56%
    08:00 +15°C° 0 mm 1 mps 627 mmHg 49%
    09:00 +18°C° 0 mm 1 mps 628 mmHg 42%
    10:00 +19°C° 0 mm 1 mps 628 mmHg 42%
    11:00 +19°C° 0 mm 2 mps 628 mmHg 42%
    12:00 +19°C° 0 mm 2 mps 628 mmHg 41%
    13:00 +18°C° 0.1 mm 2 mps 628 mmHg 49%
    14:00 +17°C° 0.1 mm 2 mps 627 mmHg 57%
    15:00 +16°C° 0.1 mm 2 mps 627 mmHg 65%
    16:00 +15°C° 0.3 mm 2 mps 626 mmHg 71%
    17:00 +14°C° 0.3 mm 1 mps 626 mmHg 77%
    18:00 +13°C° 0.3 mm 1 mps 626 mmHg 83%
    19:00 +12°C° 0.1 mm 1 mps 625 mmHg 86%
    20:00 +11°C° 0.1 mm 1 mps 625 mmHg 89%
    21:00 +10°C° 0.1 mm 1 mps 625 mmHg 93%
    22:00 +10°C° 0 mm 1 mps 625 mmHg 93%
    23:00 +9°C° 0 mm 1 mps 625 mmHg 94%

    Day after tomorrow, 28 May, Thursday

    Time Temperature Precipitation Wind Pressure Humidity
    00:00 +9°C° 0 mm 1 mps 624 mmHg 94%
    01:00 +9°C° 0 mm 1 mps 624 mmHg 94%
    02:00 +8°C° 0 mm 1 mps 624 mmHg 93%
    03:00 +8°C° 0 mm 1 mps 624 mmHg 93%
    04:00 +9°C° 0 mm 1 mps 624 mmHg 90%
    05:00 +10°C° 0 mm 1 mps 624 mmHg 87%
    06:00 +10°C° 0 mm 1 mps 624 mmHg 84%
    07:00 +12°C° 0 mm 1 mps 625 mmHg 72%
    08:00 +15°C° 0 mm 1 mps 626 mmHg 59%
    09:00 +18°C° 0 mm 1 mps 627 mmHg 47%
    10:00 +19°C° 0 mm 1 mps 627 mmHg 46%
    11:00 +18°C° 0 mm 2 mps 627 mmHg 44%
    12:00 +19°C° 0 mm 2 mps 627 mmHg 43%
    13:00 +18°C° 0.2 mm 2 mps 626 mmHg 51%
    14:00 +17°C° 0.2 mm 2 mps 625 mmHg 59%
    15:00 +16°C° 0.2 mm 1 mps 624 mmHg 66%
    16:00 +15°C° 0.4 mm 1 mps 624 mmHg 71%
    17:00 +15°C° 0.4 mm 1 mps 623 mmHg 76%
    18:00 +13°C° 0.4 mm 0 mps 623 mmHg 81%
    19:00 +12°C° 0 mm 1 mps 622 mmHg 85%
    20:00 +11°C° 0 mm 1 mps 622 mmHg 89%
    21:00 +10°C° 0 mm 1 mps 622 mmHg 93%
    22:00 +9°C° 0 mm 1 mps 621 mmHg 90%
    23:00 +9°C° 0 mm 1 mps 621 mmHg 87%

    29 May, Friday

    Time Temperature Precipitation Wind Pressure Humidity
    00:00 +8°C° 0 mm 1 mps 621 mmHg 84%
    01:00 +8°C° 0 mm 1 mps 620 mmHg 78%
    02:00 +8°C° 0 mm 1 mps 620 mmHg 73%
    03:00 +7°C° 0 mm 1 mps 620 mmHg 68%
    04:00 +8°C° 0 mm 1 mps 620 mmHg 67%
    05:00 +9°C° 0 mm 1 mps 620 mmHg 66%
    06:00 +10°C° 0 mm 1 mps 621 mmHg 66%
    07:00 +13°C° 0 mm 1 mps 622 mmHg 57%
    08:00 +15°C° 0 mm 1 mps 623 mmHg 48%
    09:00 +19°C° 0 mm 1 mps 624 mmHg 40%
    10:00 +19°C° 0 mm 1 mps 624 mmHg 38%
    11:00 +20°C° 0 mm 1 mps 624 mmHg 37%
    12:00 +20°C° 0 mm 2 mps 624 mmHg 35%
    13:00 +19°C° 0.1 mm 2 mps 623 mmHg 40%
    14:00 +19°C° 0.1 mm 2 mps 623 mmHg 45%
    15:00 +19°C° 0.1 mm 2 mps 622 mmHg 49%
    16:00 +18°C° 0.3 mm 1 mps 622 mmHg 59%
    17:00 +16°C° 0.3 mm 1 mps 621 mmHg 69%
    18:00 +15°C° 0.3 mm 1 mps 621 mmHg 79%
    19:00 +13°C° 0.1 mm 1 mps 620 mmHg 83%
    20:00 +12°C° 0.1 mm 1 mps 620 mmHg 87%
    21:00 +9°C° 0.1 mm 0 mps 620 mmHg 92%
    22:00 +10°C° 0 mm 1 mps 620 mmHg 91%
    23:00 +10°C° 0 mm 1 mps 619 mmHg 91%

    30 May, Saturday

    Time Temperature Precipitation Wind Pressure Humidity
    00:00 +9°C° 0 mm 1 mps 619 mmHg 90%
    01:00 +9°C° 0 mm 1 mps 619 mmHg 90%
    02:00 +9°C° 0 mm 1 mps 619 mmHg 89%
    03:00 +9°C° 0 mm 1 mps 618 mmHg 89%
    04:00 +10°C° 0 mm 1 mps 619 mmHg 86%
    05:00 +11°C° 0 mm 1 mps 619 mmHg 84%
    06:00 +11°C° 0 mm 1 mps 620 mmHg 82%
    07:00 +14°C° 0 mm 1 mps 621 mmHg 69%
    08:00 +16°C° 0 mm 1 mps 621 mmHg 57%
    09:00 +19°C° 0 mm 1 mps 622 mmHg 45%
    10:00 +20°C° 0 mm 1 mps 622 mmHg 43%
    11:00 +19°C° 0 mm 2 mps 623 mmHg 40%
    12:00 +20°C° 0 mm 2 mps 623 mmHg 38%
    13:00 +20°C° 0.1 mm 2 mps 622 mmHg 42%
    14:00 +19°C° 0.1 mm 2 mps 622 mmHg 47%
    15:00 +18°C° 0.1 mm 2 mps 621 mmHg 51%
    16:00 +18°C° 0.2 mm 1 mps 621 mmHg 59%
    17:00 +16°C° 0.2 mm 1 mps 620 mmHg 66%
    18:00 +15°C° 0.2 mm 1 mps 620 mmHg 73%
    19:00 +14°C° 0 mm 1 mps 620 mmHg 78%
    20:00 +12°C° 0 mm 1 mps 619 mmHg 83%
    21:00 +10°C° 0 mm 1 mps 619 mmHg 88%
    22:00 +10°C° 0 mm 1 mps 619 mmHg 88%
    23:00 +10°C° 0 mm 1 mps 619 mmHg 88%

    31 May, Sunday

    Time Temperature Precipitation Wind Pressure Humidity
    00:00 +10°C° 0 mm 1 mps 619 mmHg 88%
    01:00 +10°C° 0 mm 1 mps 619 mmHg 88%
    02:00 +9°C° 0 mm 1 mps 618 mmHg 89%
    03:00 +9°C° 0 mm 1 mps 618 mmHg 89%
    04:00 +10°C° 0 mm 1 mps 619 mmHg 87%
    05:00 +11°C° 0 mm 1 mps 619 mmHg 85%
    06:00 +12°C° 0 mm 1 mps 620 mmHg 82%
    07:00 +14°C° 0 mm 1 mps 621 mmHg 72%
    08:00 +16°C° 0 mm 1 mps 621 mmHg 61%
    09:00 +19°C° 0 mm 1 mps 622 mmHg 51%
    10:00 +19°C° 0 mm 2 mps 622 mmHg 48%
    11:00 +20°C° 0 mm 2 mps 622 mmHg 46%
    12:00 +21°C° 0 mm 2 mps 623 mmHg 43%
    13:00 +20°C° 0.4 mm 2 mps 622 mmHg 49%
    14:00 +19°C° 0.4 mm 2 mps 621 mmHg 54%
    15:00 +19°C° 0.4 mm 1 mps 621 mmHg 60%
    16:00 +18°C° 0.7 mm 1 mps 620 mmHg 67%
    17:00 +16°C° 0.7 mm 1 mps 620 mmHg 74%
    18:00 +14°C° 0.7 mm 0 mps 619 mmHg 81%
    19:00 +13°C° 0.2 mm 0 mps 619 mmHg 83%
    20:00 +12°C° 0.2 mm 0 mps 619 mmHg 85%
    21:00 +11°C° 0.2 mm 0 mps 618 mmHg 87%
    22:00 +12°C° 0.2 mm 1 mps 618 mmHg 87%
    23:00 +11°C° 0.2 mm 1 mps 618 mmHg 87%
    Show more